Lewiston, ID

8:02 PM PDT on September 30, 2016 (GMT -0700)
Lewiston-Nez Perce County

Weather History for KLWS - January, 2013

Change the Weather History Date:

Thursday, January 3, 2013

  Actual Average Record
Temperature  
Mean Temperature 27 °F 34 °F  
Max Temperature 34 °F 40 °F 58 °F (1903)
Min Temperature 19 °F 28 °F 0 °F (1974)
Degree Days  
Heating Degree Days 38 31  
Month to date heating degree days 109 93  
Since 1 July heating degree days 1911 2301  
Cooling Degree Days 0 0  
Month to date cooling degree days 0 0  
Year to date cooling degree days 0 0  
Moisture  
Dew Point 16 °F    
Average Humidity 64    
Maximum Humidity 81    
Minimum Humidity 47    
Precipitation  
Precipitation 0.00 in 0.04 in 1.20 in (1884)
Month to date precipitation 0.00 0.11  
Year to date precipitation 0.00 0.11  
Snow  
Snow 0.00 in 0.10 in 6.60 in (1966)
Month to date snowfall 0.0 0.3  
Since 1 July snowfall 0.3 5.6  
Snow Depth 0.00 in    
Sea Level Pressure  
Sea Level Pressure 30.43 in    
Wind  
Wind Speed 3 mph (South)    
Max Wind Speed 17 mph    
Max Gust Speed 21 mph    
Visibility 10 miles    
Events      
T = Trace of Precipitation, MM = Missing Value Source: NWS Daily Summary

Daily Weather History Graph

Daily Weather History Graph

Search for Another Location

Airport or City:

Trip Planner

Search our weather history database for the weather conditions in past years. The results will help you decide how hot, cold, wet, or windy it might be!

Date:

Astronomy

Jan. 03, 2013 Rise Set
Actual Time 7:31 AM PST 4:14 PM PST
Civil Twilight 6:56 AM PST 4:49 PM PST
Nautical Twilight 6:18 AM PST 5:27 PM PST
Astronomical Twilight 5:42 AM PST 6:03 PM PST
Moon 11:20 PM PST (1/3) 10:21 AM PST (1/3)
Length of Visible Light 9h 52m
Length of Day
8h 43m
Waning Gibbous, 64% of the Moon is Illuminated
Jan 3
Waning Gibbous
Jan 4
Last Quarter
Jan 11
New
Jan 18
First Quarter
Jan 26
Full

Hourly Weather History & Observations

Time (PST) Temp. Windchill Dew Point Humidity Pressure Visibility Wind Dir Wind Speed Gust Speed Precip Events Conditions
12:56 AM 21.9 °F 15.7 °F 16.0 °F 78% 30.50 in 10.0 mi SW 4.6 mph - N/A   Clear
1:56 AM 21.9 °F - 15.1 °F 75% 30.50 in 10.0 mi Calm Calm - N/A   Clear
2:56 AM 23.0 °F 14.7 °F 14.0 °F 68% 30.49 in 10.0 mi SE 6.9 mph - N/A   Clear
3:56 AM 21.9 °F - 14.0 °F 72% 30.48 in 10.0 mi Calm Calm - N/A   Clear
4:56 AM 21.9 °F 17.2 °F 14.0 °F 72% 30.48 in 10.0 mi SE 3.5 mph - N/A   Clear
5:56 AM 21.0 °F - 15.1 °F 78% 30.48 in 10.0 mi Calm Calm - N/A   Clear
6:56 AM 23.0 °F 13.9 °F 15.1 °F 72% 30.47 in 10.0 mi East 8.1 mph - N/A   Clear
7:56 AM 21.0 °F 16.2 °F 14.0 °F 74% 30.47 in 10.0 mi East 3.5 mph - N/A   Clear
8:56 AM 24.1 °F 12.0 °F 16.0 °F 71% 30.46 in 10.0 mi East 13.8 mph - N/A   Clear
9:56 AM 28.0 °F 18.1 °F 14.0 °F 56% 30.45 in 10.0 mi SE 11.5 mph - N/A   Clear
10:56 AM 28.9 °F - 15.1 °F 56% 30.43 in 10.0 mi Calm Calm - N/A   Clear
11:56 AM 30.9 °F 26.2 °F 15.1 °F 52% 30.40 in 10.0 mi South 4.6 mph - N/A   Clear
12:56 PM 32.0 °F 28.7 °F 17.1 °F 54% 30.38 in 10.0 mi NW 3.5 mph - N/A   Clear
1:56 PM 33.1 °F 30.0 °F 16.0 °F 50% 30.37 in 10.0 mi WNW 3.5 mph - N/A   Clear
2:56 PM 33.1 °F - 16.0 °F 50% 30.36 in 10.0 mi Calm Calm - N/A   Clear
3:56 PM 32.0 °F - 17.1 °F 54% 30.36 in 10.0 mi Calm Calm - N/A   Clear
4:56 PM 28.9 °F 25.2 °F 18.0 °F 64% 30.37 in 10.0 mi West 3.5 mph - N/A   Clear
5:56 PM 28.0 °F - 18.0 °F 66% 30.37 in 10.0 mi Calm Calm - N/A   Clear
6:56 PM 25.0 °F 17.1 °F 19.0 °F 78% 30.40 in 10.0 mi WSW 6.9 mph - N/A   Clear
7:56 PM 24.1 °F 19.7 °F 18.0 °F 77% 30.41 in 10.0 mi SSW 3.5 mph - N/A   Clear
8:56 PM 25.0 °F - 18.0 °F 75% 30.40 in 10.0 mi Calm Calm - N/A   Clear
9:56 PM 24.1 °F - 18.0 °F 77% 30.41 in 10.0 mi Calm Calm - N/A   Mostly Cloudy
10:56 PM 24.1 °F 19.7 °F 19.0 °F 81% 30.42 in 10.0 mi WNW 3.5 mph - N/A   Overcast
11:56 PM 23.0 °F - 18.0 °F 81% 30.42 in 10.0 mi Calm Calm - N/A   Clear